User: anonymous   Login
Location: Berlin
(38.3226°N, 75.2177°W)
Time: 23:19:33
(UTC+00:00)
Language:

deb Chang Zheng 4 - Orbit

View from above orbital plane
View from above orbital plane
View from above satellite
View from above satellite

Ground track
Ground track

The orbit data is extracted from the following two-line orbital elements,

1 20847U 90081K   21018.73167788  .00002033  00000-0  24280-3 0  9995
2 20847  98.5697  10.9430 0015534 178.5082 181.6180 14.85419935600182
Epoch (UTC): 18 January 2021 17:33:36
Eccentricity: 0.0015534
inclination: 98.5697°
perigee height: 601 km
apogee height: 623 km
right ascension of ascending node: 10.9430°
argument of perigee: 178.5082°
revolutions per day: 14.85419935
mean anomaly at epoch: 181.6180°
orbit number at epoch: 60018

The dashed part of the orbit path shows where the satellite is in the earth's shadow,  

DLR